Time,TemperatureF,DewpointF,PressureIn,WindDirection,WindDirectionDegrees,WindSpeedMPH,WindSpeedGustMPH,Humidity,HourlyPrecipIn,Conditions,Clouds,dailyrainin,SoftwareType,DateUTC
2013-08-08 00:01:00,73.8,70.7,30.04,North,360,0.0,3.0,90,0.00,,---,0.00,VWS V14.01,2013-08-08 04:01:00,
2013-08-08 00:02:00,73.8,70.7,30.04,North,360,0.0,3.0,90,0.00,,---,0.00,VWS V14.01,2013-08-08 04:02:00,
2013-08-08 00:07:00,73.8,70.7,30.04,North,360,2.0,3.0,90,0.00,,---,0.00,VWS V14.01,2013-08-08 04:07:00,
2013-08-08 00:12:00,73.8,70.7,30.04,North,360,2.0,4.0,90,0.00,,---,0.00,VWS V14.01,2013-08-08 04:12:00,
2013-08-08 00:17:00,73.7,70.6,30.04,North,360,0.0,4.0,90,0.00,,---,0.00,VWS V14.01,2013-08-08 04:17:00,
2013-08-08 00:22:00,73.8,70.7,30.04,North,360,0.0,4.0,90,0.00,,---,0.00,VWS V14.01,2013-08-08 04:22:00,
2013-08-08 00:27:00,73.7,70.9,30.04,North,360,0.0,4.0,91,0.00,,---,0.00,VWS V14.01,2013-08-08 04:27:00,
2013-08-08 00:33:00,73.6,70.8,30.04,North,360,2.0,4.0,91,0.00,,---,0.00,VWS V14.01,2013-08-08 04:33:00,
2013-08-08 00:38:00,73.5,70.7,30.04,North,360,2.0,4.0,91,0.00,,---,0.00,VWS V14.01,2013-08-08 04:38:00,
2013-08-08 00:43:00,73.3,70.5,30.04,North,360,3.0,4.0,91,0.00,,---,0.00,VWS V14.01,2013-08-08 04:43:00,
2013-08-08 00:48:00,73.2,70.4,30.04,North,360,4.0,5.0,91,0.00,,---,0.00,VWS V14.01,2013-08-08 04:48:00,
2013-08-08 00:53:00,73.2,70.4,30.04,North,360,3.0,5.0,91,0.00,,---,0.00,VWS V14.01,2013-08-08 04:53:00,
2013-08-08 00:58:00,73.2,70.4,30.04,North,360,5.0,6.0,91,0.00,,---,0.00,VWS V14.01,2013-08-08 04:58:00,
2013-08-08 01:03:00,73.3,70.5,30.04,North,360,5.0,5.0,91,0.00,,---,0.00,VWS V14.01,2013-08-08 05:03:00,
2013-08-08 01:08:00,73.3,70.5,30.04,North,360,4.0,5.0,91,0.00,,---,0.00,VWS V14.01,2013-08-08 05:08:00,
2013-08-08 01:13:00,73.2,70.4,30.03,North,360,3.0,6.0,91,0.00,,---,0.00,VWS V14.01,2013-08-08 05:13:00,
2013-08-08 01:18:00,73.2,70.4,30.03,North,360,4.0,6.0,91,0.00,,---,0.00,VWS V14.01,2013-08-08 05:18:00,
2013-08-08 01:23:00,73.2,70.4,30.03,North,360,5.0,6.0,91,0.00,,---,0.00,VWS V14.01,2013-08-08 05:23:00,
2013-08-08 01:28:00,73.1,70.3,30.03,North,360,6.0,6.0,91,0.00,,---,0.00,VWS V14.01,2013-08-08 05:28:00,
2013-08-08 01:33:00,73.1,70.6,30.03,North,360,4.0,6.0,92,0.00,,---,0.00,VWS V14.01,2013-08-08 05:33:00,
2013-08-08 01:38:00,73.0,70.5,30.03,North,360,6.0,6.0,92,0.00,,---,0.00,VWS V14.01,2013-08-08 05:38:00,
2013-08-08 01:43:00,73.0,70.5,30.03,North,360,5.0,7.0,92,0.00,,---,0.00,VWS V14.01,2013-08-08 05:43:00,
2013-08-08 01:48:00,72.9,70.4,30.03,North,360,4.0,7.0,92,0.00,,---,0.00,VWS V14.01,2013-08-08 05:48:00,
2013-08-08 01:54:00,72.9,70.4,30.03,North,360,4.0,10.0,92,0.00,,---,0.00,VWS V14.01,2013-08-08 05:54:00,
2013-08-08 01:59:00,72.7,70.2,30.03,North,360,5.0,10.0,92,0.00,,---,0.00,VWS V14.01,2013-08-08 05:59:00,
2013-08-08 02:04:00,72.7,70.2,30.03,North,360,5.0,6.0,92,0.00,,---,0.00,VWS V14.01,2013-08-08 06:04:00,
2013-08-08 02:09:00,72.6,70.2,30.03,North,360,5.0,9.0,92,0.00,,---,0.00,VWS V14.01,2013-08-08 06:09:00,
2013-08-08 02:14:00,72.5,70.1,30.03,North,360,6.0,9.0,92,0.00,,---,0.00,VWS V14.01,2013-08-08 06:14:00,
2013-08-08 02:19:00,72.5,70.1,30.03,North,360,7.0,11.0,92,0.00,,---,0.00,VWS V14.01,2013-08-08 06:19:00,
2013-08-08 02:24:00,72.4,69.9,30.03,North,360,6.0,11.0,92,0.00,,---,0.00,VWS V14.01,2013-08-08 06:24:00,
2013-08-08 02:29:00,72.4,69.9,30.03,North,360,7.0,11.0,92,0.00,,---,0.00,VWS V14.01,2013-08-08 06:29:00,
2013-08-08 02:34:00,72.4,69.9,30.03,North,360,6.0,11.0,92,0.00,,---,0.00,VWS V14.01,2013-08-08 06:34:00,
2013-08-08 02:39:00,72.4,69.9,30.03,North,360,4.0,11.0,92,0.00,,---,0.00,VWS V14.01,2013-08-08 06:39:00,
2013-08-08 02:44:00,72.5,70.1,30.03,North,360,6.0,11.0,92,0.00,,---,0.00,VWS V14.01,2013-08-08 06:44:00,
2013-08-08 02:49:00,72.5,70.1,30.03,North,360,4.0,11.0,92,0.00,,---,0.00,VWS V14.01,2013-08-08 06:49:00,
2013-08-08 02:54:00,72.5,70.1,30.03,North,360,6.0,11.0,92,0.00,,---,0.00,VWS V14.01,2013-08-08 06:54:00,
2013-08-08 02:59:00,72.5,70.1,30.03,North,360,4.0,11.0,92,0.00,,---,0.00,VWS V14.01,2013-08-08 06:59:00,
2013-08-08 03:04:00,72.5,70.1,30.03,North,360,4.0,5.0,92,0.00,,---,0.00,VWS V14.01,2013-08-08 07:04:00,
2013-08-08 03:09:00,72.6,70.2,30.03,North,360,4.0,7.0,92,0.00,,---,0.00,VWS V14.01,2013-08-08 07:09:00,
2013-08-08 03:15:00,72.8,70.3,30.03,North,360,4.0,7.0,92,0.00,,---,0.00,VWS V14.01,2013-08-08 07:15:00,
2013-08-08 03:20:00,72.8,70.0,30.02,North,360,3.0,7.0,91,0.00,,---,0.00,VWS V14.01,2013-08-08 07:20:00,
2013-08-08 03:25:00,72.8,70.0,30.02,North,360,3.0,7.0,91,0.00,,---,0.00,VWS V14.01,2013-08-08 07:25:00,
2013-08-08 03:30:00,72.8,70.0,30.02,North,360,4.0,7.0,91,0.00,,---,0.00,VWS V14.01,2013-08-08 07:30:00,
2013-08-08 03:35:00,72.8,70.0,30.02,North,360,3.0,7.0,91,0.00,,---,0.00,VWS V14.01,2013-08-08 07:35:00,
2013-08-08 03:40:00,72.8,70.0,30.02,North,360,6.0,7.0,91,0.00,,---,0.00,VWS V14.01,2013-08-08 07:40:00,
2013-08-08 03:45:00,72.8,70.0,30.02,North,360,4.0,7.0,91,0.00,,---,0.00,VWS V14.01,2013-08-08 07:45:00,
2013-08-08 03:50:00,72.8,69.7,30.02,North,360,3.0,7.0,90,0.00,,---,0.00,VWS V14.01,2013-08-08 07:50:00,
2013-08-08 03:55:00,72.8,70.0,30.02,North,360,4.0,7.0,91,0.00,,---,0.00,VWS V14.01,2013-08-08 07:55:00,
2013-08-08 04:00:00,72.7,69.9,30.02,North,360,3.0,7.0,91,0.00,,---,0.00,VWS V14.01,2013-08-08 08:00:00,
2013-08-08 04:05:00,72.7,69.9,30.02,North,360,3.0,5.0,91,0.00,,---,0.00,VWS V14.01,2013-08-08 08:05:00,
2013-08-08 04:10:00,72.6,69.8,30.02,North,360,3.0,5.0,91,0.00,,---,0.00,VWS V14.01,2013-08-08 08:10:00,
2013-08-08 04:15:00,72.5,69.7,30.03,North,360,1.0,5.0,91,0.00,,---,0.00,VWS V14.01,2013-08-08 08:15:00,
2013-08-08 04:20:00,72.4,69.6,30.03,North,360,3.0,5.0,91,0.00,,---,0.00,VWS V14.01,2013-08-08 08:20:00,
2013-08-08 04:25:00,72.5,69.7,30.03,North,360,3.0,5.0,91,0.00,,---,0.00,VWS V14.01,2013-08-08 08:25:00,
2013-08-08 04:30:00,72.4,69.6,30.03,North,360,2.0,5.0,91,0.00,,---,0.00,VWS V14.01,2013-08-08 08:30:00,
2013-08-08 04:35:00,72.4,69.6,30.03,North,360,3.0,7.0,91,0.00,,---,0.00,VWS V14.01,2013-08-08 08:35:00,
2013-08-08 04:40:00,72.3,69.5,30.03,North,360,1.0,7.0,91,0.00,,---,0.00,VWS V14.01,2013-08-08 08:40:00,
2013-08-08 04:45:00,72.3,69.5,30.03,North,360,4.0,7.0,91,0.00,,---,0.00,VWS V14.01,2013-08-08 08:45:00,
2013-08-08 04:51:00,72.2,69.4,30.03,North,360,1.0,7.0,91,0.00,,---,0.00,VWS V14.01,2013-08-08 08:51:00,
2013-08-08 04:56:00,72.2,69.4,30.03,North,360,5.0,7.0,91,0.00,,---,0.00,VWS V14.01,2013-08-08 08:56:00,
2013-08-08 05:01:00,72.1,69.7,30.03,North,360,3.0,7.0,92,0.00,,---,0.00,VWS V14.01,2013-08-08 09:01:00,
2013-08-08 05:06:00,72.1,69.7,30.03,North,360,4.0,6.0,92,0.00,,---,0.00,VWS V14.01,2013-08-08 09:06:00,
2013-08-08 05:11:00,72.1,69.7,30.03,North,360,4.0,6.0,92,0.00,,---,0.00,VWS V14.01,2013-08-08 09:11:00,
2013-08-08 05:16:00,72.1,69.7,30.03,North,360,5.0,6.0,92,0.00,,---,0.00,VWS V14.01,2013-08-08 09:16:00,
2013-08-08 05:21:00,72.2,69.8,30.03,North,360,4.0,6.0,92,0.00,,---,0.00,VWS V14.01,2013-08-08 09:21:00,
2013-08-08 05:26:00,72.1,69.7,30.03,North,360,4.0,6.0,92,0.00,,---,0.00,VWS V14.01,2013-08-08 09:26:00,
2013-08-08 05:31:00,71.9,69.4,30.03,North,360,4.0,6.0,92,0.00,,---,0.00,VWS V14.01,2013-08-08 09:31:00,
2013-08-08 05:36:00,71.9,69.4,30.03,North,360,5.0,7.0,92,0.00,,---,0.00,VWS V14.01,2013-08-08 09:36:00,
2013-08-08 05:41:00,71.9,69.4,30.03,North,360,3.0,7.0,92,0.00,,---,0.00,VWS V14.01,2013-08-08 09:41:00,
2013-08-08 05:46:00,71.9,69.4,30.04,North,360,4.0,7.0,92,0.00,,---,0.00,VWS V14.01,2013-08-08 09:46:00,
2013-08-08 05:51:00,71.8,69.3,30.03,North,360,5.0,7.0,92,0.00,,---,0.00,VWS V14.01,2013-08-08 09:51:00,
2013-08-08 05:56:00,71.8,69.3,30.03,North,360,3.0,8.0,92,0.00,,---,0.00,VWS V14.01,2013-08-08 09:56:00,
2013-08-08 06:02:00,71.8,69.3,30.04,North,360,7.0,11.0,92,0.00,,---,0.00,VWS V14.01,2013-08-08 10:02:00,
2013-08-08 06:07:00,71.8,69.3,30.04,North,360,6.0,9.0,92,0.00,,---,0.00,VWS V14.01,2013-08-08 10:07:00,
2013-08-08 06:12:00,71.6,69.2,30.04,North,360,8.0,13.0,92,0.00,,---,0.00,VWS V14.01,2013-08-08 10:12:00,
2013-08-08 06:17:00,71.2,69.1,30.04,North,360,5.0,14.0,93,0.00,,---,0.00,VWS V14.01,2013-08-08 10:17:00,
2013-08-08 06:22:00,71.0,68.9,30.04,North,360,3.0,14.0,93,0.01,,---,0.01,VWS V14.01,2013-08-08 10:22:00,
2013-08-08 06:27:00,70.8,69.0,30.04,North,360,3.0,14.0,94,0.02,,---,0.02,VWS V14.01,2013-08-08 10:27:00,
2013-08-08 06:32:00,70.7,68.9,30.04,North,360,5.0,14.0,94,0.03,,---,0.03,VWS V14.01,2013-08-08 10:32:00,
2013-08-08 06:37:00,70.5,68.7,30.04,North,360,5.0,14.0,94,0.05,,---,0.05,VWS V14.01,2013-08-08 10:37:00,
2013-08-08 06:42:00,70.4,68.9,30.04,North,360,6.0,14.0,95,0.06,,---,0.06,VWS V14.01,2013-08-08 10:42:00,
2013-08-08 06:47:00,70.5,69.0,30.04,North,360,4.0,14.0,95,0.07,,---,0.07,VWS V14.01,2013-08-08 10:47:00,
2013-08-08 06:52:00,70.5,69.0,30.04,North,360,2.0,14.0,95,0.08,,---,0.08,VWS V14.01,2013-08-08 10:52:00,
2013-08-08 06:57:00,70.5,69.0,30.04,North,360,3.0,14.0,95,0.08,,---,0.08,VWS V14.01,2013-08-08 10:57:00,
2013-08-08 07:02:00,70.5,69.0,30.04,North,360,1.0,14.0,95,0.08,,---,0.08,VWS V14.01,2013-08-08 11:02:00,
2013-08-08 07:07:00,70.4,68.9,30.04,North,360,0.0,4.0,95,0.08,,---,0.08,VWS V14.01,2013-08-08 11:07:00,
2013-08-08 07:12:00,70.4,68.9,30.04,North,360,3.0,4.0,95,0.08,,---,0.08,VWS V14.01,2013-08-08 11:12:00,
2013-08-08 07:17:00,70.3,69.1,30.04,North,360,3.0,4.0,96,0.08,,---,0.08,VWS V14.01,2013-08-08 11:17:00,
2013-08-08 07:22:00,70.4,69.2,30.04,North,360,2.0,5.0,96,0.08,,---,0.08,VWS V14.01,2013-08-08 11:22:00,
2013-08-08 07:28:00,70.4,69.2,30.04,North,360,3.0,5.0,96,0.08,,---,0.08,VWS V14.01,2013-08-08 11:28:00,
2013-08-08 07:33:00,70.3,69.1,30.04,North,360,4.0,5.0,96,0.08,,---,0.08,VWS V14.01,2013-08-08 11:33:00,
2013-08-08 07:38:00,70.3,69.1,30.04,North,360,2.0,5.0,96,0.08,,---,0.08,VWS V14.01,2013-08-08 11:38:00,
2013-08-08 07:43:00,70.3,69.1,30.04,North,360,4.0,5.0,96,0.08,,---,0.08,VWS V14.01,2013-08-08 11:43:00,
2013-08-08 07:48:00,70.4,69.2,30.04,North,360,3.0,5.0,96,0.08,,---,0.08,VWS V14.01,2013-08-08 11:48:00,
2013-08-08 07:53:00,70.4,69.2,30.04,North,360,4.0,5.0,96,0.08,,---,0.08,VWS V14.01,2013-08-08 11:53:00,
2013-08-08 07:58:00,70.5,69.3,30.04,North,360,4.0,5.0,96,0.08,,---,0.08,VWS V14.01,2013-08-08 11:58:00,
2013-08-08 08:03:00,70.6,69.4,30.04,North,360,3.0,4.0,96,0.00,,---,0.08,VWS V14.01,2013-08-08 12:03:00,
2013-08-08 08:08:00,70.6,69.4,30.04,North,360,2.0,4.0,96,0.00,,---,0.08,VWS V14.01,2013-08-08 12:08:00,
2013-08-08 08:13:00,70.6,69.4,30.04,North,360,3.0,5.0,96,0.00,,---,0.08,VWS V14.01,2013-08-08 12:13:00,
2013-08-08 08:18:00,70.7,69.2,30.04,North,360,4.0,5.0,95,0.00,,---,0.08,VWS V14.01,2013-08-08 12:18:00,
2013-08-08 08:23:00,70.6,69.1,30.05,North,360,5.0,6.0,95,0.00,,---,0.08,VWS V14.01,2013-08-08 12:23:00,
2013-08-08 08:29:00,70.7,69.5,30.05,North,360,3.0,6.0,96,0.00,,---,0.08,VWS V14.01,2013-08-08 12:29:00,
2013-08-08 08:34:00,70.7,69.5,30.05,North,360,3.0,6.0,96,0.00,,---,0.08,VWS V14.01,2013-08-08 12:34:00,
2013-08-08 08:39:00,70.9,69.7,30.05,North,360,4.0,6.0,96,0.00,,---,0.08,VWS V14.01,2013-08-08 12:39:00,
2013-08-08 08:44:00,70.9,69.7,30.05,North,360,4.0,7.0,96,0.00,,---,0.08,VWS V14.01,2013-08-08 12:44:00,
2013-08-08 08:49:00,71.0,69.8,30.05,North,360,6.0,9.0,96,0.00,,---,0.08,VWS V14.01,2013-08-08 12:49:00,
2013-08-08 08:54:00,71.0,69.8,30.06,North,360,3.0,10.0,96,0.00,,---,0.08,VWS V14.01,2013-08-08 12:54:00,
2013-08-08 08:59:00,71.1,69.9,30.06,North,360,5.0,10.0,96,0.00,,---,0.08,VWS V14.01,2013-08-08 12:59:00,
2013-08-08 09:04:00,71.2,70.0,30.06,North,360,5.0,7.0,96,0.00,,---,0.08,VWS V14.01,2013-08-08 13:04:00,
2013-08-08 09:09:00,71.3,70.1,30.05,North,360,4.0,7.0,96,0.00,,---,0.08,VWS V14.01,2013-08-08 13:09:00,
2013-08-08 09:14:00,71.3,69.8,30.05,North,360,5.0,7.0,95,0.00,,---,0.08,VWS V14.01,2013-08-08 13:14:00,
2013-08-08 09:19:00,71.3,69.8,30.05,North,360,7.0,9.0,95,0.00,,---,0.08,VWS V14.01,2013-08-08 13:19:00,
2013-08-08 09:24:00,71.3,69.8,30.05,North,360,5.0,9.0,95,0.00,,---,0.08,VWS V14.01,2013-08-08 13:24:00,
2013-08-08 09:29:00,71.4,69.9,30.05,North,360,7.0,12.0,95,0.00,,---,0.08,VWS V14.01,2013-08-08 13:29:00,
2013-08-08 09:34:00,71.5,70.0,30.05,North,360,5.0,12.0,95,0.00,,---,0.08,VWS V14.01,2013-08-08 13:34:00,
2013-08-08 09:39:00,71.5,70.0,30.05,North,360,5.0,12.0,95,0.00,,---,0.08,VWS V14.01,2013-08-08 13:39:00,
2013-08-08 09:44:00,71.5,70.0,30.06,North,360,10.0,12.0,95,0.00,,---,0.08,VWS V14.01,2013-08-08 13:44:00,
2013-08-08 09:49:00,71.6,70.1,30.05,North,360,4.0,12.0,95,0.00,,---,0.08,VWS V14.01,2013-08-08 13:49:00,
2013-08-08 09:55:00,71.7,70.2,30.05,North,360,8.0,12.0,95,0.00,,---,0.08,VWS V14.01,2013-08-08 13:55:00,
2013-08-08 10:00:00,71.8,70.3,30.05,North,360,2.0,12.0,95,0.00,,---,0.08,VWS V14.01,2013-08-08 14:00:00,
2013-08-08 10:05:00,72.0,70.5,30.06,North,360,5.0,6.0,95,0.00,,---,0.08,VWS V14.01,2013-08-08 14:05:00,
2013-08-08 10:10:00,72.1,70.6,30.06,North,360,4.0,7.0,95,0.00,,---,0.08,VWS V14.01,2013-08-08 14:10:00,
2013-08-08 10:15:00,72.3,70.8,30.05,North,360,4.0,7.0,95,0.00,,---,0.08,VWS V14.01,2013-08-08 14:15:00,
2013-08-08 10:20:00,72.6,70.8,30.06,North,360,10.0,11.0,94,0.00,,---,0.08,VWS V14.01,2013-08-08 14:20:00,
2013-08-08 10:25:00,72.8,70.7,30.05,North,360,3.0,11.0,93,0.00,,---,0.08,VWS V14.01,2013-08-08 14:25:00,
2013-08-08 10:30:00,73.1,71.0,30.06,North,360,5.0,11.0,93,0.00,,---,0.08,VWS V14.01,2013-08-08 14:30:00,
2013-08-08 10:35:00,73.4,71.3,30.06,North,360,3.0,11.0,93,0.00,,---,0.08,VWS V14.01,2013-08-08 14:35:00,
2013-08-08 10:40:00,73.4,70.9,30.06,North,360,6.0,11.0,92,0.00,,---,0.08,VWS V14.01,2013-08-08 14:40:00,
2013-08-08 10:46:00,73.5,71.0,30.06,North,360,9.0,11.0,92,0.00,,---,0.08,VWS V14.01,2013-08-08 14:46:00,
2013-08-08 10:51:00,73.7,71.2,30.06,North,360,6.0,11.0,92,0.00,,---,0.08,VWS V14.01,2013-08-08 14:51:00,
2013-08-08 10:56:00,73.8,71.3,30.06,North,360,7.0,12.0,92,0.00,,---,0.08,VWS V14.01,2013-08-08 14:56:00,
2013-08-08 11:01:00,73.9,71.1,30.06,North,360,7.0,12.0,91,0.00,,---,0.08,VWS V14.01,2013-08-08 15:01:00,
2013-08-08 11:06:00,74.2,71.4,30.06,North,360,5.0,9.0,91,0.00,,---,0.08,VWS V14.01,2013-08-08 15:06:00,
2013-08-08 11:11:00,74.3,71.5,30.06,North,360,2.0,9.0,91,0.00,,---,0.08,VWS V14.01,2013-08-08 15:11:00,
2013-08-08 11:16:00,74.3,71.5,30.07,North,360,4.0,9.0,91,0.00,,---,0.08,VWS V14.01,2013-08-08 15:16:00,
2013-08-08 11:21:00,74.3,71.5,30.06,North,360,9.0,10.0,91,0.00,,---,0.08,VWS V14.01,2013-08-08 15:21:00,
2013-08-08 11:26:00,74.3,71.5,30.06,North,360,10.0,11.0,91,0.00,,---,0.08,VWS V14.01,2013-08-08 15:26:00,
2013-08-08 11:31:00,74.7,71.9,30.06,North,360,4.0,11.0,91,0.00,,---,0.08,VWS V14.01,2013-08-08 15:31:00,
2013-08-08 11:36:00,75.0,71.9,30.06,North,360,5.0,11.0,90,0.00,,---,0.08,VWS V14.01,2013-08-08 15:36:00,
2013-08-08 11:41:00,75.2,72.1,30.06,North,360,5.0,11.0,90,0.00,,---,0.08,VWS V14.01,2013-08-08 15:41:00,
2013-08-08 11:46:00,75.6,72.5,30.06,North,360,5.0,11.0,90,0.00,,---,0.08,VWS V14.01,2013-08-08 15:46:00,
2013-08-08 11:51:00,75.8,72.3,30.06,North,360,4.0,12.0,89,0.00,,---,0.08,VWS V14.01,2013-08-08 15:51:00,
2013-08-08 11:56:00,75.7,72.2,30.07,North,360,9.0,12.0,89,0.00,,---,0.08,VWS V14.01,2013-08-08 15:56:00,
2013-08-08 12:01:00,75.6,72.1,30.07,North,360,9.0,15.0,89,0.00,,---,0.08,VWS V14.01,2013-08-08 16:01:00,
2013-08-08 12:07:00,75.6,72.1,30.06,North,360,6.0,10.0,89,0.00,,---,0.08,VWS V14.01,2013-08-08 16:07:00,
2013-08-08 12:12:00,75.5,72.0,30.07,North,360,6.0,11.0,89,0.00,,---,0.08,VWS V14.01,2013-08-08 16:12:00,
2013-08-08 12:17:00,75.3,71.8,30.06,North,360,3.0,12.0,89,0.00,,---,0.08,VWS V14.01,2013-08-08 16:17:00,
2013-08-08 12:22:00,75.4,71.9,30.06,North,360,10.0,14.0,89,0.00,,---,0.08,VWS V14.01,2013-08-08 16:22:00,
2013-08-08 12:27:00,75.7,72.2,30.06,North,360,9.0,14.0,89,0.00,,---,0.08,VWS V14.01,2013-08-08 16:27:00,
2013-08-08 12:32:00,75.8,72.3,30.06,North,360,12.0,14.0,89,0.00,,---,0.08,VWS V14.01,2013-08-08 16:32:00,
2013-08-08 12:37:00,76.4,72.6,30.06,North,360,9.0,14.0,88,0.00,,---,0.08,VWS V14.01,2013-08-08 16:37:00,
2013-08-08 12:42:00,76.8,72.6,30.06,North,360,7.0,14.0,87,0.00,,---,0.08,VWS V14.01,2013-08-08 16:42:00,
2013-08-08 12:47:00,76.9,72.7,30.06,North,360,10.0,14.0,87,0.00,,---,0.08,VWS V14.01,2013-08-08 16:47:00,
2013-08-08 12:52:00,76.8,72.3,30.06,North,360,12.0,14.0,86,0.00,,---,0.08,VWS V14.01,2013-08-08 16:52:00,
2013-08-08 12:57:00,76.9,72.7,30.06,North,360,11.0,14.0,87,0.00,,---,0.08,VWS V14.01,2013-08-08 16:57:00,
2013-08-08 13:02:00,76.9,72.4,30.06,North,360,10.0,14.0,86,0.00,,---,0.08,VWS V14.01,2013-08-08 17:02:00,
2013-08-08 13:07:00,76.8,72.6,30.06,North,360,6.0,11.0,87,0.00,,---,0.08,VWS V14.01,2013-08-08 17:07:00,
2013-08-08 13:12:00,76.9,72.4,30.06,North,360,7.0,13.0,86,0.00,,---,0.08,VWS V14.01,2013-08-08 17:12:00,
2013-08-08 13:17:00,76.4,72.2,30.06,North,360,6.0,13.0,87,0.00,,---,0.08,VWS V14.01,2013-08-08 17:17:00,
2013-08-08 13:23:00,76.1,72.3,30.06,North,360,7.0,13.0,88,0.00,,---,0.08,VWS V14.01,2013-08-08 17:23:00,
2013-08-08 13:28:00,76.3,72.5,30.06,North,360,5.0,14.0,88,0.00,,---,0.08,VWS V14.01,2013-08-08 17:28:00,
2013-08-08 13:33:00,76.5,72.7,30.06,North,360,6.0,14.0,88,0.00,,---,0.08,VWS V14.01,2013-08-08 17:33:00,
2013-08-08 13:38:00,76.6,72.4,30.06,North,360,5.0,14.0,87,0.00,,---,0.08,VWS V14.01,2013-08-08 17:38:00,
2013-08-08 13:43:00,76.8,73.0,30.06,North,360,7.0,14.0,88,0.00,,---,0.08,VWS V14.01,2013-08-08 17:43:00,
2013-08-08 13:48:00,76.9,73.4,30.05,North,360,10.0,14.0,89,0.00,,---,0.08,VWS V14.01,2013-08-08 17:48:00,
2013-08-08 13:53:00,76.7,72.9,30.05,North,360,9.0,14.0,88,0.00,,---,0.08,VWS V14.01,2013-08-08 17:53:00,
2013-08-08 13:58:00,76.6,73.1,30.05,North,360,6.0,14.0,89,0.00,,---,0.08,VWS V14.01,2013-08-08 17:58:00,
2013-08-08 14:03:00,76.7,73.2,30.05,North,360,8.0,10.0,89,0.00,,---,0.08,VWS V14.01,2013-08-08 18:03:00,
2013-08-08 14:08:00,76.9,73.1,30.05,North,360,6.0,11.0,88,0.00,,---,0.08,VWS V14.01,2013-08-08 18:08:00,
2013-08-08 14:13:00,76.9,72.7,30.05,North,360,7.0,12.0,87,0.00,,---,0.08,VWS V14.01,2013-08-08 18:13:00,
2013-08-08 14:18:00,77.0,72.8,30.04,North,360,6.0,12.0,87,0.00,,---,0.08,VWS V14.01,2013-08-08 18:18:00,
2013-08-08 14:23:00,77.8,74.0,30.04,North,360,10.0,14.0,88,0.00,,---,0.08,VWS V14.01,2013-08-08 18:23:00,
2013-08-08 14:28:00,78.5,73.6,30.04,North,360,9.0,14.0,85,0.00,,---,0.08,VWS V14.01,2013-08-08 18:28:00,
2013-08-08 14:33:00,78.4,73.9,30.04,North,360,7.0,14.0,86,0.00,,---,0.08,VWS V14.01,2013-08-08 18:33:00,
2013-08-08 14:39:00,78.9,74.4,30.03,North,360,8.0,14.0,86,0.00,,---,0.08,VWS V14.01,2013-08-08 18:39:00,
2013-08-08 14:44:00,79.5,74.6,30.03,North,360,8.0,14.0,85,0.00,,---,0.08,VWS V14.01,2013-08-08 18:44:00,
2013-08-08 14:49:00,80.0,74.4,30.03,North,360,8.0,14.0,83,0.00,,---,0.08,VWS V14.01,2013-08-08 18:49:00,
2013-08-08 14:54:00,79.9,74.3,30.03,North,360,5.0,14.0,83,0.00,,---,0.08,VWS V14.01,2013-08-08 18:54:00,
2013-08-08 14:59:00,80.2,74.6,30.03,North,360,6.0,15.0,83,0.00,,---,0.08,VWS V14.01,2013-08-08 18:59:00,
2013-08-08 15:04:00,80.3,74.3,30.03,North,360,10.0,14.0,82,0.00,,---,0.08,VWS V14.01,2013-08-08 19:04:00,
2013-08-08 15:09:00,79.9,73.9,30.02,North,360,11.0,14.0,82,0.00,,---,0.08,VWS V14.01,2013-08-08 19:09:00,
2013-08-08 15:14:00,80.5,74.5,30.02,North,360,6.0,14.0,82,0.00,,---,0.08,VWS V14.01,2013-08-08 19:14:00,
2013-08-08 15:19:00,80.7,74.3,30.02,North,360,10.0,14.0,81,0.00,,---,0.08,VWS V14.01,2013-08-08 19:19:00,
2013-08-08 15:24:00,80.6,74.2,30.02,North,360,17.0,17.0,81,0.00,,---,0.08,VWS V14.01,2013-08-08 19:24:00,
2013-08-08 15:29:00,80.5,74.1,30.02,North,360,9.0,17.0,81,0.00,,---,0.08,VWS V14.01,2013-08-08 19:29:00,
2013-08-08 15:34:00,80.4,74.4,30.02,North,360,11.0,17.0,82,0.00,,---,0.08,VWS V14.01,2013-08-08 19:34:00,
2013-08-08 15:39:00,80.6,74.6,30.02,North,360,4.0,19.0,82,0.00,,---,0.08,VWS V14.01,2013-08-08 19:39:00,
2013-08-08 15:44:00,80.4,74.4,30.02,North,360,9.0,19.0,82,0.00,,---,0.08,VWS V14.01,2013-08-08 19:44:00,
2013-08-08 15:50:00,80.7,74.7,30.02,North,360,10.0,19.0,82,0.00,,---,0.08,VWS V14.01,2013-08-08 19:50:00,
2013-08-08 15:55:00,80.6,74.6,30.01,North,360,9.0,19.0,82,0.00,,---,0.08,VWS V14.01,2013-08-08 19:55:00,
2013-08-08 16:00:00,80.4,74.4,30.01,North,360,12.0,19.0,82,0.00,,---,0.08,VWS V14.01,2013-08-08 20:00:00,
2013-08-08 16:05:00,80.5,74.9,30.01,North,360,10.0,16.0,83,0.00,,---,0.08,VWS V14.01,2013-08-08 20:05:00,
2013-08-08 16:10:00,80.5,74.5,30.01,North,360,7.0,18.0,82,0.00,,---,0.08,VWS V14.01,2013-08-08 20:10:00,
2013-08-08 16:15:00,80.5,74.5,30.00,North,360,9.0,18.0,82,0.00,,---,0.08,VWS V14.01,2013-08-08 20:15:00,
2013-08-08 16:20:00,80.7,74.7,30.00,North,360,12.0,18.0,82,0.00,,---,0.08,VWS V14.01,2013-08-08 20:20:00,
2013-08-08 16:25:00,80.9,74.9,30.00,North,360,10.0,18.0,82,0.00,,---,0.08,VWS V14.01,2013-08-08 20:25:00,
2013-08-08 16:30:00,81.1,75.1,30.00,North,360,13.0,18.0,82,0.00,,---,0.08,VWS V14.01,2013-08-08 20:30:00,
2013-08-08 16:35:00,81.1,74.7,30.00,North,360,11.0,18.0,81,0.00,,---,0.08,VWS V14.01,2013-08-08 20:35:00,
2013-08-08 16:40:00,81.2,74.8,30.00,North,360,13.0,18.0,81,0.00,,---,0.08,VWS V14.01,2013-08-08 20:40:00,
2013-08-08 16:46:00,81.0,75.0,30.00,North,360,7.0,18.0,82,0.00,,---,0.08,VWS V14.01,2013-08-08 20:46:00,
2013-08-08 16:51:00,80.9,74.9,30.00,North,360,9.0,18.0,82,0.00,,---,0.08,VWS V14.01,2013-08-08 20:51:00,
2013-08-08 16:56:00,81.1,74.7,30.00,North,360,9.0,18.0,81,0.00,,---,0.08,VWS V14.01,2013-08-08 20:56:00,
2013-08-08 17:01:00,81.4,75.0,29.99,North,360,9.0,18.0,81,0.00,,---,0.08,VWS V14.01,2013-08-08 21:01:00,
2013-08-08 17:06:00,81.9,74.4,30.00,North,360,11.0,15.0,78,0.00,,---,0.08,VWS V14.01,2013-08-08 21:06:00,
2013-08-08 17:11:00,81.9,73.6,29.99,North,360,10.0,18.0,76,0.00,,---,0.08,VWS V14.01,2013-08-08 21:11:00,
2013-08-08 17:16:00,81.4,73.1,30.00,North,360,15.0,19.0,76,0.00,,---,0.08,VWS V14.01,2013-08-08 21:16:00,
2013-08-08 17:21:00,81.1,73.6,29.99,North,360,9.0,19.0,78,0.00,,---,0.08,VWS V14.01,2013-08-08 21:21:00,
2013-08-08 17:26:00,81.2,73.7,29.99,North,360,12.0,19.0,78,0.00,,---,0.08,VWS V14.01,2013-08-08 21:26:00,
2013-08-08 17:31:00,81.2,74.1,29.99,North,360,10.0,19.0,79,0.00,,---,0.08,VWS V14.01,2013-08-08 21:31:00,
2013-08-08 17:36:00,80.9,73.8,29.99,North,360,5.0,19.0,79,0.00,,---,0.08,VWS V14.01,2013-08-08 21:36:00,
2013-08-08 17:41:00,80.8,74.1,29.99,North,360,6.0,19.0,80,0.00,,---,0.08,VWS V14.01,2013-08-08 21:41:00,
2013-08-08 17:46:00,80.7,74.0,30.00,North,360,8.0,19.0,80,0.00,,---,0.08,VWS V14.01,2013-08-08 21:46:00,
2013-08-08 17:51:00,80.6,74.2,30.00,North,360,7.0,19.0,81,0.00,,---,0.08,VWS V14.01,2013-08-08 21:51:00,
2013-08-08 17:57:00,80.3,73.9,30.00,North,360,7.0,19.0,81,0.00,,---,0.08,VWS V14.01,2013-08-08 21:57:00,
2013-08-08 18:02:00,80.2,74.2,30.00,North,360,2.0,19.0,82,0.00,,---,0.08,VWS V14.01,2013-08-08 22:02:00,
2013-08-08 18:07:00,80.3,74.3,30.00,North,360,7.0,8.0,82,0.00,,---,0.08,VWS V14.01,2013-08-08 22:07:00,
2013-08-08 18:12:00,80.1,74.5,30.00,North,360,6.0,8.0,83,0.00,,---,0.08,VWS V14.01,2013-08-08 22:12:00,
2013-08-08 18:17:00,80.0,74.4,30.00,North,360,5.0,9.0,83,0.00,,---,0.08,VWS V14.01,2013-08-08 22:17:00,
2013-08-08 18:22:00,80.1,74.5,30.00,North,360,3.0,9.0,83,0.00,,---,0.08,VWS V14.01,2013-08-08 22:22:00,
2013-08-08 18:28:00,80.3,74.3,30.01,North,360,5.0,9.0,82,0.00,,---,0.08,VWS V14.01,2013-08-08 22:28:00,
2013-08-08 18:33:00,80.4,74.4,30.01,North,360,3.0,9.0,82,0.00,,---,0.08,VWS V14.01,2013-08-08 22:33:00,
2013-08-08 18:38:00,80.4,74.4,30.00,North,360,5.0,9.0,82,0.00,,---,0.08,VWS V14.01,2013-08-08 22:38:00,
2013-08-08 18:43:00,80.4,74.0,30.00,North,360,5.0,9.0,81,0.00,,---,0.08,VWS V14.01,2013-08-08 22:43:00,
2013-08-08 18:48:00,80.3,74.3,30.01,North,360,4.0,9.0,82,0.00,,---,0.08,VWS V14.01,2013-08-08 22:48:00,
2013-08-08 18:53:00,80.2,74.2,30.00,North,360,3.0,9.0,82,0.00,,---,0.08,VWS V14.01,2013-08-08 22:53:00,
2013-08-08 18:58:00,80.2,74.2,30.00,North,360,3.0,9.0,82,0.00,,---,0.08,VWS V14.01,2013-08-08 22:58:00,
2013-08-08 19:03:00,80.3,74.3,30.00,North,360,3.0,4.0,82,0.00,,---,0.08,VWS V14.01,2013-08-08 23:03:00,
2013-08-08 19:08:00,80.3,74.3,30.01,North,360,2.0,5.0,82,0.00,,---,0.08,VWS V14.01,2013-08-08 23:08:00,
2013-08-08 19:13:00,80.2,74.6,30.01,North,360,2.0,5.0,83,0.00,,---,0.08,VWS V14.01,2013-08-08 23:13:00,
2013-08-08 19:18:00,80.1,74.5,30.01,North,360,1.0,5.0,83,0.00,,---,0.08,VWS V14.01,2013-08-08 23:18:00,
2013-08-08 19:23:00,79.9,74.3,30.01,North,360,3.0,6.0,83,0.00,,---,0.08,VWS V14.01,2013-08-08 23:23:00,
2013-08-08 19:28:00,79.7,74.4,30.01,North,360,1.0,6.0,84,0.00,,---,0.08,VWS V14.01,2013-08-08 23:28:00,
2013-08-08 19:33:00,79.8,74.2,30.01,North,360,4.0,6.0,83,0.00,,---,0.08,VWS V14.01,2013-08-08 23:33:00,
2013-08-08 19:38:00,79.6,74.3,30.01,North,360,2.0,6.0,84,0.00,,---,0.08,VWS V14.01,2013-08-08 23:38:00,
2013-08-08 19:43:00,79.7,74.4,30.01,North,360,4.0,6.0,84,0.00,,---,0.08,VWS V14.01,2013-08-08 23:43:00,
2013-08-08 19:48:00,79.5,74.6,30.00,North,360,3.0,6.0,85,0.00,,---,0.08,VWS V14.01,2013-08-08 23:48:00,
2013-08-08 19:53:00,79.6,74.7,30.01,North,360,2.0,6.0,85,0.00,,---,0.08,VWS V14.01,2013-08-08 23:53:00,
2013-08-08 19:59:00,79.5,74.6,30.01,North,360,3.0,6.0,85,0.00,,---,0.08,VWS V14.01,2013-08-08 23:59:00,
2013-08-08 20:04:00,79.4,74.5,30.01,North,360,4.0,4.0,85,0.00,,---,0.08,VWS V14.01,2013-08-09 00:04:00,
2013-08-08 20:09:00,79.4,74.5,30.02,North,360,4.0,5.0,85,0.00,,---,0.08,VWS V14.01,2013-08-09 00:09:00,
2013-08-08 20:14:00,79.4,74.8,30.02,North,360,5.0,5.0,86,0.00,,---,0.08,VWS V14.01,2013-08-09 00:14:00,
2013-08-08 20:19:00,79.3,74.8,30.02,North,360,3.0,5.0,86,0.00,,---,0.08,VWS V14.01,2013-08-09 00:19:00,
2013-08-08 20:24:00,79.2,74.7,30.01,North,360,3.0,6.0,86,0.00,,---,0.08,VWS V14.01,2013-08-09 00:24:00,
2013-08-08 20:30:00,79.0,74.8,30.01,North,360,3.0,6.0,87,0.00,,---,0.08,VWS V14.01,2013-08-09 00:30:00,
2013-08-08 20:35:00,78.8,74.6,30.02,North,360,3.0,6.0,87,0.00,,---,0.08,VWS V14.01,2013-08-09 00:35:00,
2013-08-08 20:40:00,78.7,74.5,30.02,North,360,2.0,6.0,87,0.00,,---,0.08,VWS V14.01,2013-08-09 00:40:00,
2013-08-08 20:45:00,78.6,74.8,30.02,North,360,2.0,6.0,88,0.00,,---,0.08,VWS V14.01,2013-08-09 00:45:00,
2013-08-08 20:50:00,78.5,74.7,30.01,North,360,3.0,6.0,88,0.00,,---,0.08,VWS V14.01,2013-08-09 00:50:00,
2013-08-08 20:55:00,78.4,74.6,30.01,North,360,3.0,6.0,88,0.00,,---,0.08,VWS V14.01,2013-08-09 00:55:00,
2013-08-08 21:00:00,78.4,74.6,30.01,North,360,1.0,6.0,88,0.00,,---,0.08,VWS V14.01,2013-08-09 01:00:00,
2013-08-08 21:05:00,78.4,74.6,30.01,North,360,4.0,4.0,88,0.00,,---,0.08,VWS V14.01,2013-08-09 01:05:00,
2013-08-08 21:10:00,78.4,74.6,30.01,North,360,3.0,4.0,88,0.00,,---,0.08,VWS V14.01,2013-08-09 01:10:00,
2013-08-08 21:15:00,78.3,74.5,30.01,North,360,4.0,5.0,88,0.00,,---,0.08,VWS V14.01,2013-08-09 01:15:00,
2013-08-08 21:20:00,78.2,74.7,30.01,North,360,3.0,5.0,89,0.00,,---,0.08,VWS V14.01,2013-08-09 01:20:00,
2013-08-08 21:25:00,78.1,74.6,30.01,North,360,3.0,5.0,89,0.00,,---,0.08,VWS V14.01,2013-08-09 01:25:00,
2013-08-08 21:31:00,78.0,74.5,30.01,North,360,3.0,5.0,89,0.00,,---,0.08,VWS V14.01,2013-08-09 01:31:00,
2013-08-08 21:36:00,78.0,74.5,30.01,North,360,3.0,6.0,89,0.00,,---,0.08,VWS V14.01,2013-08-09 01:36:00,
2013-08-08 21:41:00,77.9,74.4,30.01,North,360,5.0,6.0,89,0.00,,---,0.08,VWS V14.01,2013-08-09 01:41:00,
2013-08-08 21:46:00,77.9,74.4,30.01,North,360,4.0,6.0,89,0.00,,---,0.08,VWS V14.01,2013-08-09 01:46:00,
2013-08-08 21:51:00,77.7,74.2,30.02,North,360,5.0,6.0,89,0.00,,---,0.08,VWS V14.01,2013-08-09 01:51:00,
2013-08-08 21:56:00,77.6,74.4,30.01,North,360,4.0,6.0,90,0.00,,---,0.08,VWS V14.01,2013-08-09 01:56:00,
2013-08-08 22:01:00,77.6,74.4,30.02,North,360,2.0,6.0,90,0.00,,---,0.08,VWS V14.01,2013-08-09 02:01:00,
2013-08-08 22:07:00,77.5,74.3,30.01,North,360,3.0,4.0,90,0.00,,---,0.08,VWS V14.01,2013-08-09 02:07:00,
2013-08-08 22:12:00,77.5,74.3,30.01,North,360,3.0,4.0,90,0.00,,---,0.08,VWS V14.01,2013-08-09 02:12:00,
2013-08-08 22:17:00,77.5,74.3,30.01,North,360,3.0,4.0,90,0.00,,---,0.08,VWS V14.01,2013-08-09 02:17:00,
2013-08-08 22:22:00,77.3,74.1,30.01,North,360,4.0,6.0,90,0.00,,---,0.08,VWS V14.01,2013-08-09 02:22:00,
2013-08-08 22:27:00,77.2,74.0,30.01,North,360,5.0,6.0,90,0.00,,---,0.08,VWS V14.01,2013-08-09 02:27:00,
2013-08-08 22:32:00,77.2,74.4,30.01,North,360,4.0,6.0,91,0.00,,---,0.08,VWS V14.01,2013-08-09 02:32:00,
2013-08-08 22:37:00,77.1,74.3,30.01,North,360,3.0,6.0,91,0.00,,---,0.08,VWS V14.01,2013-08-09 02:37:00,
2013-08-08 22:42:00,77.1,74.3,30.01,North,360,4.0,6.0,91,0.00,,---,0.08,VWS V14.01,2013-08-09 02:42:00,
2013-08-08 22:47:00,77.0,74.2,30.01,North,360,4.0,6.0,91,0.00,,---,0.08,VWS V14.01,2013-08-09 02:47:00,
2013-08-08 22:52:00,77.0,74.2,30.01,North,360,4.0,6.0,91,0.00,,---,0.08,VWS V14.01,2013-08-09 02:52:00,
2013-08-08 22:57:00,76.9,74.1,30.01,North,360,2.0,6.0,91,0.00,,---,0.08,VWS V14.01,2013-08-09 02:57:00,
2013-08-08 23:02:00,76.8,74.0,30.01,North,360,2.0,6.0,91,0.00,,---,0.08,VWS V14.01,2013-08-09 03:02:00,
2013-08-08 23:08:00,76.8,74.0,30.01,North,360,4.0,9.0,91,0.00,,---,0.08,VWS V14.01,2013-08-09 03:08:00,
2013-08-08 23:13:00,76.8,74.0,30.02,North,360,4.0,9.0,91,0.00,,---,0.08,VWS V14.01,2013-08-09 03:13:00,
2013-08-08 23:18:00,76.9,74.1,30.01,North,360,4.0,9.0,91,0.00,,---,0.08,VWS V14.01,2013-08-09 03:18:00,
2013-08-08 23:23:00,76.9,73.8,30.02,North,360,5.0,9.0,90,0.00,,---,0.08,VWS V14.01,2013-08-09 03:23:00,
2013-08-08 23:28:00,77.0,73.8,30.01,North,360,3.0,9.0,90,0.00,,---,0.08,VWS V14.01,2013-08-09 03:28:00,
2013-08-08 23:33:00,77.0,73.8,30.01,North,360,4.0,10.0,90,0.00,,---,0.08,VWS V14.01,2013-08-09 03:33:00,
2013-08-08 23:38:00,77.0,73.8,30.01,North,360,5.0,13.0,90,0.00,,---,0.08,VWS V14.01,2013-08-09 03:38:00,
2013-08-08 23:43:00,77.1,73.9,30.01,North,360,4.0,13.0,90,0.00,,---,0.08,VWS V14.01,2013-08-09 03:43:00,
2013-08-08 23:48:00,77.1,73.9,30.01,North,360,6.0,13.0,90,0.00,,---,0.08,VWS V14.01,2013-08-09 03:48:00,
2013-08-08 23:53:00,77.1,73.6,30.01,North,360,5.0,13.0,89,0.00,,---,0.08,VWS V14.01,2013-08-09 03:53:00,
2013-08-08 23:59:00,77.0,73.5,30.01,North,360,7.0,13.0,89,0.00,,---,0.08,VWS V14.01,2013-08-09 03:59:00,